Weather History for Springfield, VT

Change the Weather History Date:

Monday, December 2, 2013

  Actual Average Record
Temperature  
Mean Temperature 34 °F 31 °F  
Max Temperature 38 °F 39 °F 62 °F (1998)
Min Temperature 30 °F 23 °F 8 °F (2003)
Degree Days  
Heating Degree Days 31 34  
Month to date heating degree days 64 68  
Since 1 July heating degree days 1764 1711  
Cooling Degree Days 0 0  
Month to date cooling degree days 0  
Year to date cooling degree days 345  
Moisture  
Dew Point 30 °F    
Average Humidity 91    
Maximum Humidity 100    
Minimum Humidity 82    
Precipitation  
Precipitation 0.00 in 0.11 in 0.86 in (1996)
Month to date precipitation 0.00 0.23  
Year to date precipitation 35.41 40.81  
Sea Level Pressure  
Sea Level Pressure 29.98 in    
Wind  
Wind Speed 0 mph (SSE)    
Max Wind Speed 5 mph    
Max Gust Speed 5 mph    
Visibility 9 miles    
Events      
T = Trace of Precipitation, MM = Missing Value Source: NWS Daily Summary

Daily Weather History Graph

Daily Weather History Graph

Search for Another Location

Airport:

Trip Planner

Search our weather history database for the weather conditions in past years. The results will help you decide how hot, cold, wet, or windy it might be!

Date:

Astronomy

Dec. 02, 2013 Rise Set
Actual Time 7:03 AM EST 4:15 PM EST
Civil Twilight 6:31 AM EST 4:47 PM EST
Nautical Twilight 5:56 AM EST 5:22 PM EST
Astronomical Twilight 5:21 AM EST 5:57 PM EST
Moon 6:24 AM EST (12/2) 4:16 PM EST (12/2)
Length of Visible Light 10h 15m
Length of Day
9h 11m
Waning Crescent, 0% of the Moon is Illuminated
Dec 2
Waning Crescent
Dec 2
New
Dec 9
First Quarter
Dec 17
Full
Dec 25
Last Quarter

Hourly Weather History & Observations

Time (EST) Temp. Windchill Dew Point Humidity Pressure Visibility Wind Dir Wind Speed Gust Speed Precip Events Conditions
12:54 AM 30.0 °F - 28.0 °F 92% 30.05 in 10.0 mi Calm Calm - N/A   Overcast
1:54 AM 30.9 °F - 28.0 °F 89% 30.05 in 8.0 mi Calm Calm - N/A   Overcast
2:54 AM 30.9 °F - 28.0 °F 89% 30.04 in 9.0 mi Calm Calm - N/A   Overcast
3:54 AM 30.9 °F - 28.0 °F 89% 30.04 in 10.0 mi Calm Calm - N/A   Overcast
4:28 AM 30.9 °F - 28.0 °F 89% 30.00 in 10.0 mi Calm Calm - N/A   Overcast
4:54 AM 30.9 °F - 28.0 °F 89% 30.01 in 10.0 mi Calm Calm - N/A   Overcast
5:06 AM 30.9 °F - 28.0 °F 89% 29.99 in 10.0 mi Calm Calm - N/A   Overcast
5:54 AM 30.9 °F - 28.0 °F 89% 30.02 in 10.0 mi Calm Calm - N/A   Overcast
6:54 AM 30.9 °F - 28.0 °F 89% 30.02 in 10.0 mi Calm Calm - N/A   Overcast
7:02 AM 30.9 °F - 28.0 °F 89% 29.99 in 10.0 mi Calm Calm - N/A   Overcast
7:54 AM 32.0 °F - 28.0 °F 85% 30.01 in 10.0 mi Calm Calm - N/A   Overcast
8:54 AM 32.0 °F - 28.9 °F 88% 30.01 in 9.0 mi Calm Calm - N/A   Overcast
9:54 AM 33.1 °F - 30.9 °F 92% 30.01 in 8.0 mi Calm Calm - N/A   Overcast
10:54 AM 35.1 °F - 32.0 °F 89% 30.00 in 10.0 mi Calm Calm - N/A   Overcast
11:23 AM 36.0 °F - 32.0 °F 86% 29.96 in 10.0 mi Calm Calm - N/A   Overcast
11:44 AM 36.0 °F - 32.0 °F 86% 29.95 in 10.0 mi Calm Calm - N/A   Overcast
11:54 AM 37.0 °F - 32.0 °F 82% 29.98 in 10.0 mi Calm Calm - N/A   Overcast
12:49 PM 37.4 °F 34.9 °F 32.0 °F 81% 29.94 in 10.0 mi SSE 3.5 mph - N/A   Overcast
12:54 PM 37.9 °F 35.5 °F 32.0 °F 79% 29.96 in 10.0 mi SSE 3.5 mph - N/A   Overcast
1:54 PM 37.9 °F - 33.1 °F 83% 29.95 in 10.0 mi Calm Calm - N/A   Overcast
2:54 PM 37.0 °F - 33.1 °F 86% 29.94 in 10.0 mi Calm Calm - N/A   Overcast
3:54 PM 37.0 °F - 32.0 °F 82% 29.93 in 10.0 mi Calm Calm - N/A   Overcast
4:54 PM 34.0 °F - 30.9 °F 89% 29.94 in 10.0 mi Calm Calm - N/A   Overcast
5:54 PM 34.0 °F - 30.9 °F 89% 29.96 in 10.0 mi Calm Calm - N/A   Overcast
6:54 PM 33.1 °F - 30.9 °F 92% 29.96 in 8.0 mi Calm Calm - N/A   Overcast
7:54 PM 33.1 °F - 30.9 °F 92% 29.96 in 10.0 mi Calm Calm - N/A   Overcast
8:54 PM 30.9 °F - 30.0 °F 96% 29.95 in 9.0 mi Calm Calm - N/A   Overcast
9:45 PM 30.9 °F - 28.9 °F 92% 29.93 in 7.0 mi Calm Calm - N/A   Overcast
9:54 PM 30.9 °F - 30.0 °F 96% 29.95 in 5.0 mi Calm Calm - N/A   Overcast
10:54 PM 32.0 °F - 30.0 °F 92% 29.95 in 7.0 mi Calm Calm - N/A   Overcast
11:54 PM 32.0 °F - 30.9 °F 96% 29.94 in 6.0 mi Calm Calm - N/A   Overcast